(236954) = 2005 JE149 = 2005 JF175 = 2007 UP21

Discovered at Kitt Peak on 2007-10-16 by Spacewatch.

Orbit

Orbit type: Main Belt

Note: WebGL enabled browser required.

epoch2023-09-13.0
epoch JD2460200.5
perihelion date2023-08-10.59444
perihelion JD2460167.09444
argument of perihelion (°)171.91532
ascending node (°)200.28724
inclination (°)4.77535
eccentricity0.0607340
perihelion distance (AU)2.8815396
Tisserand w.r.t. Jupiter3.2
ΔV w.r.t. Earth (km/sec)10.6
semimajor axis (AU)3.0678632
mean anomaly (°)6.12729
mean daily motion (°/day)0.18342130
aphelion distance (AU)3.254
period (years)5.37
P-vector [x]0.97723721
P-vector [y]0.18968968
P-vector [z]0.09500141
Q-vector [x]-0.21017676
Q-vector [y]0.92658085
Q-vector [z]0.31188724
absolute magnitude16.16
phase slope0.15
uncertainty0
referenceMPEC 2024-A65
observations used321
oppositions16
arc length (days)10857
first opposition used1994
last opposition used2024
residual rms (arc-secs)0.72
perturbers coarse indicatorM-v
perturbers precise indicator003Ek
first observation date used1994-04-15.0
last observation date used2024-01-05.0
computer nameMPCLINUX
JD of orbit computation2456731.536213
perihelion JD uncertainty (days)2.0268E-04
argument of perihelion uncertainty (°)5.9555E-05
ascending node uncertainty (°)4.4370E-05
inclination uncertainty (°)8.2428E-06
eccentricity uncertainty 7.2259E-08
perihelion distance uncertainty (AU)2.2392E-07
Minimum Orbit Intersection Distances (in AU)
for orbit epoch: 2460200.5, reference: E2023-W21
Mercury2.52456
Venus2.15786
Earth1.88082
Mars1.44371
Jupiter2.07017
Saturn6.01283
Uranus15.215
Neptune26.9443

Observations

327 total observations over interval: 1994 04 15.26042 – 2024 01 05.269500
These data are available for download (format description).

Date (UT) J2000 RA J2000 Dec Magn Location Ref
1994 04 15.26042 13 30 29.64 -09 00 17.8   691 – Steward Observatory, Kitt Peak-Spacewatch MPS 225100
1994 04 15.28542 13 30 28.57 -09 00 10.1 20.4 V 691 – Steward Observatory, Kitt Peak-Spacewatch MPS 225100
1994 04 15.31042 13 30 27.43 -09 00 01.9   691 – Steward Observatory, Kitt Peak-Spacewatch MPS 225100
2001 08 23.26959 22 40 45.97 -02 58 02.6 19.7 R 699 – Lowell Observatory-LONEOS MPS 225100
2001 08 23.29296 22 40 44.94 -02 58 10.0   699 – Lowell Observatory-LONEOS MPS 225100
2001 08 23.31634 22 40 43.92 -02 58 16.8   699 – Lowell Observatory-LONEOS MPS 225100
2001 08 23.33978 22 40 42.86 -02 58 23.4   699 – Lowell Observatory-LONEOS MPS 225100
2001 09 12.28078 22 26 34.16 -04 48 41.9 20.0   704 – Lincoln Laboratory ETS, New Mexico MPS 317991
2001 09 12.29525 22 26 33.53 -04 48 46.4 20.1   704 – Lincoln Laboratory ETS, New Mexico MPS 317991
2001 09 12.30985 22 26 32.91 -04 48 51.6 20.5   704 – Lincoln Laboratory ETS, New Mexico MPS 317991
2005 05 03.25349 14 49 33.37 -13 26 50.2 21.0 V 691 – Steward Observatory, Kitt Peak-Spacewatch MPS 135411
2005 05 03.27086 14 49 32.55 -13 26 45.4 20.5 V 691 – Steward Observatory, Kitt Peak-Spacewatch MPS 135411
2005 05 03.28822 14 49 31.73 -13 26 40.4 20.3 V 691 – Steward Observatory, Kitt Peak-Spacewatch MPS 135411
2005 05 10.22099 14 44 14.51 -12 54 40.4 20.9 V 691 – Steward Observatory, Kitt Peak-Spacewatch MPC 54303
2005 05 10.23887 14 44 13.70 -12 54 35.4 21.3 V 691 – Steward Observatory, Kitt Peak-Spacewatch MPC 54303
2005 05 10.25660 14 44 12.86 -12 54 30.8 21.0 V 691 – Steward Observatory, Kitt Peak-Spacewatch MPC 54303
2005 05 14.35004 14 41 10.31 -12 36 18.3 19.6 R G96 – Mt. Lemmon Survey MPS 135411
2005 05 14.35804 14 41 09.91 -12 36 16.2 19.7 R G96 – Mt. Lemmon Survey MPS 135411
2005 05 14.36605 14 41 09.58 -12 36 14.1 20.1 R G96 – Mt. Lemmon Survey MPS 135411
2005 05 14.37406 14 41 09.19 -12 36 11.9 20.1 R G96 – Mt. Lemmon Survey MPS 135411
2007 10 08.26658 02 35 11.62 +13 44 39.2 20.5 V 691 – Steward Observatory, Kitt Peak-Spacewatch MPS 225100
2007 10 08.28420 02 35 11.00 +13 44 34.8 21.3 V 691 – Steward Observatory, Kitt Peak-Spacewatch MPS 225100
2007 10 08.30183 02 35 10.34 +13 44 29.8 21.1 V 691 – Steward Observatory, Kitt Peak-Spacewatch MPS 225100
2007 10 16.26692 02 30 04.62 +13 05 55.0 20.3 V 691 – Steward Observatory, Kitt Peak-Spacewatch MPS 223911
2007 10 16.28458 02 30 03.86 +13 05 49.8 20.1 V 691 – Steward Observatory, Kitt Peak-Spacewatch MPS 223911
2007 10 16.30223 02 30 03.09 +13 05 44.4 20.4 V 691 – Steward Observatory, Kitt Peak-Spacewatch MPS 223911
2007 10 20.25367 02 27 13.31 +12 45 05.5 20.0 V 691 – Steward Observatory, Kitt Peak-Spacewatch MPS 223911
2007 10 20.27127 02 27 12.54 +12 44 59.8 19.8 V 691 – Steward Observatory, Kitt Peak-Spacewatch MPS 223911
2007 10 20.28887 02 27 11.70 +12 44 54.6 19.7 V 691 – Steward Observatory, Kitt Peak-Spacewatch MPS 223911
2007 10 20.29676 02 27 11.44 +12 44 52.4 21.0 V 703 – Catalina Sky Survey MPS 223911
2007 10 20.30490 02 27 11.12 +12 44 50.2 20.6 V 703 – Catalina Sky Survey MPS 223911
2007 10 20.31302 02 27 10.62 +12 44 47.1 20.3 V 703 – Catalina Sky Survey MPS 223911
2007 10 20.32116 02 27 10.36 +12 44 43.5 20.3 V 703 – Catalina Sky Survey MPS 223911
2007 11 01.24437 02 18 02.59 +11 39 50.0 19.6 V G96 – Mt. Lemmon Survey MPS 223911
2007 11 01.24994 02 18 02.34 +11 39 48.2 19.3 V G96 – Mt. Lemmon Survey MPS 223911
2007 11 01.25554 02 18 02.08 +11 39 46.4 19.3 V G96 – Mt. Lemmon Survey MPS 223911
2007 11 01.26108 02 18 01.80 +11 39 44.6 19.3 V G96 – Mt. Lemmon Survey MPS 223911
2007 11 05.25298 02 14 57.73 +11 18 14.2 19.6   704 – Lincoln Laboratory ETS, New Mexico MPS 225100
2007 11 05.26517 02 14 57.11 +11 18 10.0 19.7   704 – Lincoln Laboratory ETS, New Mexico MPS 225100
2007 11 05.28937 02 14 55.95 +11 18 02.3 20.1   704 – Lincoln Laboratory ETS, New Mexico MPS 225100
2007 11 08.31444 02 12 39.92 +11 02 10.3   291 – LPL/Spacewatch II MPS 225100
2007 11 08.31881 02 12 39.74 +11 02 08.8   291 – LPL/Spacewatch II MPS 225100
2007 11 08.32485 02 12 39.46 +11 02 06.9   291 – LPL/Spacewatch II MPS 225100
2009 01 30.22035 08 06 13.14 +13 22 43.3 20.2 V G96 – Mt. Lemmon Survey MPS 272729
2009 01 30.23108 08 06 12.60 +13 22 45.4 20.2 V G96 – Mt. Lemmon Survey MPS 272729
2009 01 30.24858 08 06 11.73 +13 22 48.8 20.4 V G96 – Mt. Lemmon Survey MPS 272729
2009 01 30.26400 08 06 10.98 +13 22 52.0 20.4 V G96 – Mt. Lemmon Survey MPS 272729
2009 02 03.22722 08 03 04.28 +13 35 57.1 21.1 V G96 – Mt. Lemmon Survey MPS 272729
2009 02 03.23215 08 03 04.10 +13 35 58.3 20.8 V G96 – Mt. Lemmon Survey MPS 272729
2009 02 03.23703 08 03 03.81 +13 35 59.1 20.8 V G96 – Mt. Lemmon Survey MPS 272729
2009 02 03.24191 08 03 03.60 +13 36 00.3 20.8 V G96 – Mt. Lemmon Survey MPS 272729
2009 02 03.27954 08 03 01.83 +13 36 07.9 20.3 V G96 – Mt. Lemmon Survey MPS 272729
2009 02 03.28433 08 03 01.58 +13 36 08.7 20.3 V G96 – Mt. Lemmon Survey MPS 272729
2009 02 03.28912 08 03 01.36 +13 36 09.6 20.7 V G96 – Mt. Lemmon Survey MPS 272729
2009 02 03.29404 08 03 01.11 +13 36 10.4 20.6 V G96 – Mt. Lemmon Survey MPS 272729
2010 03 12.33063 13 17 43.54 -09 12 39.0 20.6 V 691 – Steward Observatory, Kitt Peak-Spacewatch MPS 316781
2010 03 12.34829 13 17 42.99 -09 12 34.8 20.9 V 691 – Steward Observatory, Kitt Peak-Spacewatch MPS 316781
2010 03 12.36593 13 17 42.44 -09 12 30.4 20.9 V 691 – Steward Observatory, Kitt Peak-Spacewatch MPS 316781
2010 03 18.30568 13 14 26.97 -08 46 33.4 20.5 V 691 – Steward Observatory, Kitt Peak-Spacewatch MPS 317991
2010 03 18.32335 13 14 26.27 -08 46 28.9 20.8 V 691 – Steward Observatory, Kitt Peak-Spacewatch MPS 317991
2010 03 18.34103 13 14 25.63 -08 46 23.6 20.9 V 691 – Steward Observatory, Kitt Peak-Spacewatch MPS 317992
2010 03 21.27336 13 12 38.29 -08 32 16.1 20.6 V 691 – Steward Observatory, Kitt Peak-Spacewatch MPS 319386
2010 03 21.29108 13 12 37.63 -08 32 10.8 20.6 V 691 – Steward Observatory, Kitt Peak-Spacewatch MPS 319386
2010 03 21.30879 13 12 36.91 -08 32 05.5 20.8 V 691 – Steward Observatory, Kitt Peak-Spacewatch MPS 319386
2010 05 05.18807 12 43 17.61 -04 33 14.4 20.7 V G96 – Mt. Lemmon Survey MPS 326283
2010 05 05.19339 12 43 17.47 -04 33 13.1 20.8 V G96 – Mt. Lemmon Survey MPS 326283
2010 05 05.19870 12 43 17.29 -04 33 11.8 20.9 V G96 – Mt. Lemmon Survey MPS 326283
2010 05 05.20407 12 43 17.14 -04 33 10.5 20.9 V G96 – Mt. Lemmon Survey MPS 326283
2012 08 26.54916 00 20 57.666 +05 24 56.68 21.0 w F51 – Pan-STARRS 1, Haleakala MPS 430926
2012 08 26.56324 00 20 57.302 +05 24 53.64 21.2 w F51 – Pan-STARRS 1, Haleakala MPS 430926
2012 08 26.57728 00 20 56.928 +05 24 50.75 20.9 w F51 – Pan-STARRS 1, Haleakala MPS 430926
2012 09 18.33512 00 07 32.19 +03 32 38.2 19.7 V G96 – Mt. Lemmon Survey MPS 433157
2012 09 18.34669 00 07 31.65 +03 32 33.9 19.6 V G96 – Mt. Lemmon Survey MPS 433157
2012 09 18.35824 00 07 31.15 +03 32 29.5 19.7 V G96 – Mt. Lemmon Survey MPS 433157
2012 09 18.36980 00 07 30.64 +03 32 25.6 20.1 V G96 – Mt. Lemmon Survey MPS 433157
2012 09 24.21229 00 03 20.88 +02 56 22.5 20.1 V G96 – Mt. Lemmon Survey MPS 433992
2012 09 24.21844 00 03 20.59 +02 56 20.0 20.0 V G96 – Mt. Lemmon Survey MPS 433992
2012 09 24.22491 00 03 20.30 +02 56 18.0 20.4 V G96 – Mt. Lemmon Survey MPS 433992
2012 09 24.23105 00 03 20.05 +02 56 16.0 20.2 V G96 – Mt. Lemmon Survey MPS 433992
2012 10 05.371011 23 55 34.755 +01 46 31.11 19.9 r F51 – Pan-STARRS 1, Haleakala MPS 434841
2012 10 05.372809 23 55 34.682 +01 46 30.56 20.2 r F51 – Pan-STARRS 1, Haleakala MPS 434841
2012 10 05.382409 23 55 34.290 +01 46 27.00 20.2 r F51 – Pan-STARRS 1, Haleakala MPS 434841
2012 10 05.384210 23 55 34.196 +01 46 26.24 20.4 r F51 – Pan-STARRS 1, Haleakala MPS 434841
2012 10 05.466518 23 55 30.804 +01 45 56.13 19.6 i F51 – Pan-STARRS 1, Haleakala MPS 434841
2012 10 05.468605 23 55 30.723 +01 45 55.38 19.6 i F51 – Pan-STARRS 1, Haleakala MPS 434841
2012 10 05.478599 23 55 30.312 +01 45 51.62 19.6 i F51 – Pan-STARRS 1, Haleakala MPS 434841
2012 10 05.480734 23 55 30.222 +01 45 50.86 19.6 i F51 – Pan-STARRS 1, Haleakala MPS 434841
2012 10 06.318317 23 54 57.576 +01 40 44.26 20.8 g F51 – Pan-STARRS 1, Haleakala MPS 437588
